Time,TemperatureF,DewpointF,PressureIn,WindDirection,WindDirectionDegrees,WindSpeedMPH,WindSpeedGustMPH,Humidity,HourlyPrecipIn,Conditions,Clouds,dailyrainin,SoftwareType,DateUTC
2013-05-31 00:01:00,69.6,60.9,30.16,North,360,0.0,0.0,74,0.00,,,0.00,Wunderground v.1.13,2013-05-31 04:01:00,
2013-05-31 00:05:00,69.3,60.7,30.16,North,360,0.0,0.0,74,0.00,,,0.00,Wunderground v.1.13,2013-05-31 04:05:00,
2013-05-31 00:06:00,69.3,60.7,30.16,North,360,0.0,0.0,74,0.00,,,0.00,Wunderground v.1.13,2013-05-31 04:06:00,
2013-05-31 00:09:00,69.0,60.7,30.16,North,360,0.0,0.0,75,0.00,,,0.00,Wunderground v.1.13,2013-05-31 04:09:00,
2013-05-31 00:15:00,68.5,60.3,30.16,North,360,0.0,0.0,75,0.00,,,0.00,Wunderground v.1.13,2013-05-31 04:15:00,
2013-05-31 00:20:00,68.1,60.2,30.16,North,360,0.0,0.0,76,0.00,,,0.00,Wunderground v.1.13,2013-05-31 04:20:00,
2013-05-31 00:26:00,67.6,60.1,30.16,North,360,0.0,0.0,77,0.00,,,0.00,Wunderground v.1.13,2013-05-31 04:26:00,
2013-05-31 00:28:00,67.4,59.9,30.16,North,360,0.0,0.0,77,0.00,,,0.00,Wunderground v.1.13,2013-05-31 04:28:00,
2013-05-31 00:33:00,67.1,59.6,30.17,North,360,0.0,0.0,77,0.00,,,0.00,Wunderground v.1.13,2013-05-31 04:33:00,
2013-05-31 00:39:00,66.8,59.7,30.17,North,360,0.0,0.0,78,0.00,,,0.00,Wunderground v.1.13,2013-05-31 04:39:00,
2013-05-31 00:44:00,66.4,59.7,30.17,North,360,0.0,0.0,79,0.00,,,0.00,Wunderground v.1.13,2013-05-31 04:44:00,
2013-05-31 00:50:00,65.9,59.6,30.17,North,360,0.0,0.0,80,0.00,,,0.00,Wunderground v.1.13,2013-05-31 04:50:00,
2013-05-31 00:55:00,65.7,59.7,30.17,North,360,0.0,0.0,81,0.00,,,0.00,Wunderground v.1.13,2013-05-31 04:55:00,
2013-05-31 01:01:00,65.3,59.3,30.17,North,360,0.0,0.0,81,0.00,,,0.00,Wunderground v.1.13,2013-05-31 05:01:00,
2013-05-31 01:07:00,65.0,59.4,30.17,North,360,0.0,0.0,82,0.00,,,0.00,Wunderground v.1.13,2013-05-31 05:07:00,
2013-05-31 01:13:00,64.7,59.1,30.17,North,360,0.0,0.0,82,0.00,,,0.00,Wunderground v.1.13,2013-05-31 05:13:00,
2013-05-31 01:18:00,64.4,59.1,30.18,North,360,0.0,0.0,83,0.00,,,0.00,Wunderground v.1.13,2013-05-31 05:18:00,
2013-05-31 01:24:00,64.2,58.9,30.18,North,360,0.0,0.0,83,0.00,,,0.00,Wunderground v.1.13,2013-05-31 05:24:00,
2013-05-31 01:30:00,64.1,58.8,30.18,North,360,0.0,0.0,83,0.00,,,0.00,Wunderground v.1.13,2013-05-31 05:30:00,
2013-05-31 01:36:00,63.9,59.0,30.17,North,360,0.0,0.0,84,0.00,,,0.00,Wunderground v.1.13,2013-05-31 05:36:00,
2013-05-31 01:41:00,63.8,58.9,30.17,North,360,0.0,0.0,84,0.00,,,0.00,Wunderground v.1.13,2013-05-31 05:41:00,
2013-05-31 01:47:00,63.5,58.6,30.17,North,360,0.0,1.0,84,0.00,,,0.00,Wunderground v.1.13,2013-05-31 05:47:00,
2013-05-31 01:52:00,63.3,58.7,30.17,North,360,0.0,0.0,85,0.00,,,0.00,Wunderground v.1.13,2013-05-31 05:52:00,
2013-05-31 01:57:00,63.2,58.6,30.16,North,360,0.0,0.0,85,0.00,,,0.00,Wunderground v.1.13,2013-05-31 05:57:00,
2013-05-31 02:02:00,63.0,58.4,30.16,North,360,0.0,0.0,85,0.00,,,0.00,Wunderground v.1.13,2013-05-31 06:02:00,
2013-05-31 02:08:00,62.8,58.2,30.16,North,360,0.0,0.0,85,0.00,,,0.00,Wunderground v.1.13,2013-05-31 06:08:00,
2013-05-31 02:13:00,62.7,58.5,30.16,North,360,0.0,0.0,86,0.00,,,0.00,Wunderground v.1.13,2013-05-31 06:13:00,
2013-05-31 02:19:00,62.6,58.4,30.16,North,360,0.0,0.0,86,0.00,,,0.00,Wunderground v.1.13,2013-05-31 06:19:00,
2013-05-31 02:25:00,62.4,58.2,30.16,North,360,0.0,0.0,86,0.00,,,0.00,Wunderground v.1.13,2013-05-31 06:25:00,
2013-05-31 02:30:00,62.3,58.1,30.16,North,360,0.0,0.0,86,0.00,,,0.00,Wunderground v.1.13,2013-05-31 06:30:00,
2013-05-31 02:35:00,62.1,58.2,30.15,North,360,0.0,0.0,87,0.00,,,0.00,Wunderground v.1.13,2013-05-31 06:35:00,
2013-05-31 02:41:00,61.9,58.3,30.15,North,360,0.0,0.0,88,0.00,,,0.00,Wunderground v.1.13,2013-05-31 06:41:00,
2013-05-31 02:46:00,61.9,58.3,30.15,North,360,0.0,0.0,88,0.00,,,0.00,Wunderground v.1.13,2013-05-31 06:46:00,
2013-05-31 02:52:00,61.8,58.2,30.15,North,360,0.0,1.0,88,0.00,,,0.00,Wunderground v.1.13,2013-05-31 06:52:00,
2013-05-31 02:57:00,61.7,58.1,30.15,North,360,0.0,0.0,88,0.00,,,0.00,Wunderground v.1.13,2013-05-31 06:57:00,
2013-05-31 03:03:00,61.6,58.0,30.15,North,360,0.0,0.0,88,0.00,,,0.00,Wunderground v.1.13,2013-05-31 07:03:00,
2013-05-31 03:08:00,61.5,57.9,30.14,North,360,0.0,0.0,88,0.00,,,0.00,Wunderground v.1.13,2013-05-31 07:08:00,
2013-05-31 03:14:00,61.3,57.7,30.14,North,360,0.0,0.0,88,0.00,,,0.00,Wunderground v.1.13,2013-05-31 07:14:00,
2013-05-31 03:19:00,61.3,58.0,30.14,North,360,0.0,0.0,89,0.00,,,0.00,Wunderground v.1.13,2013-05-31 07:19:00,
2013-05-31 03:25:00,61.2,57.9,30.14,North,360,0.0,0.0,89,0.00,,,0.00,Wunderground v.1.13,2013-05-31 07:25:00,
2013-05-31 03:30:00,61.0,57.7,30.14,North,360,0.0,0.0,89,0.00,,,0.00,Wunderground v.1.13,2013-05-31 07:30:00,
2013-05-31 03:35:00,60.9,57.6,30.14,North,360,0.0,0.0,89,0.00,,,0.00,Wunderground v.1.13,2013-05-31 07:35:00,
2013-05-31 03:41:00,60.7,57.4,30.14,North,360,0.0,0.0,89,0.00,,,0.00,Wunderground v.1.13,2013-05-31 07:41:00,
2013-05-31 03:47:00,60.6,57.3,30.14,North,360,0.0,0.0,89,0.00,,,0.00,Wunderground v.1.13,2013-05-31 07:47:00,
2013-05-31 03:52:00,60.5,57.2,30.14,North,360,0.0,0.0,89,0.00,,,0.00,Wunderground v.1.13,2013-05-31 07:52:00,
2013-05-31 03:58:00,60.3,57.0,30.14,North,360,0.0,0.0,89,0.00,,,0.00,Wunderground v.1.13,2013-05-31 07:58:00,
2013-05-31 04:04:00,60.2,56.9,30.13,North,360,0.0,0.0,89,0.00,,,0.00,Wunderground v.1.13,2013-05-31 08:04:00,
2013-05-31 04:09:00,60.0,56.7,30.13,North,360,0.0,0.0,89,0.00,,,0.00,Wunderground v.1.13,2013-05-31 08:09:00,
2013-05-31 04:15:00,59.8,56.6,30.13,North,360,0.0,0.0,89,0.00,,,0.00,Wunderground v.1.13,2013-05-31 08:15:00,
2013-05-31 04:20:00,59.7,56.8,30.13,North,360,0.0,0.0,90,0.00,,,0.00,Wunderground v.1.13,2013-05-31 08:20:00,
2013-05-31 04:26:00,59.5,56.6,30.13,North,360,0.0,0.0,90,0.00,,,0.00,Wunderground v.1.13,2013-05-31 08:26:00,
2013-05-31 04:32:00,59.2,56.3,30.13,North,360,0.0,0.0,90,0.00,,,0.00,Wunderground v.1.13,2013-05-31 08:32:00,
2013-05-31 04:38:00,59.1,56.2,30.13,North,360,0.0,0.0,90,0.00,,,0.00,Wunderground v.1.13,2013-05-31 08:38:00,
2013-05-31 04:43:00,59.0,56.1,30.13,North,360,0.0,0.0,90,0.00,,,0.00,Wunderground v.1.13,2013-05-31 08:43:00,
2013-05-31 04:49:00,59.0,56.1,30.13,North,360,0.0,0.0,90,0.00,,,0.00,Wunderground v.1.13,2013-05-31 08:49:00,
2013-05-31 04:55:00,59.0,56.4,30.13,North,360,0.0,0.0,91,0.00,,,0.00,Wunderground v.1.13,2013-05-31 08:55:00,
2013-05-31 05:00:00,58.9,56.3,30.13,North,360,0.0,0.0,91,0.00,,,0.00,Wunderground v.1.13,2013-05-31 09:00:00,
2013-05-31 05:05:00,58.7,56.1,30.13,North,360,0.0,0.0,91,0.00,,,0.00,Wunderground v.1.13,2013-05-31 09:05:00,
2013-05-31 05:11:00,58.7,56.1,30.13,North,360,0.0,0.0,91,0.00,,,0.00,Wunderground v.1.13,2013-05-31 09:11:00,
2013-05-31 05:16:00,58.6,56.0,30.13,North,360,0.0,0.0,91,0.00,,,0.00,Wunderground v.1.13,2013-05-31 09:16:00,
2013-05-31 05:22:00,58.5,55.9,30.13,North,360,0.0,0.0,91,0.00,,,0.00,Wunderground v.1.13,2013-05-31 09:22:00,
2013-05-31 05:27:00,58.4,56.1,30.13,North,360,0.0,0.0,92,0.00,,,0.00,Wunderground v.1.13,2013-05-31 09:27:00,
2013-05-31 05:32:00,58.3,56.0,30.13,North,360,0.0,0.0,92,0.00,,,0.00,Wunderground v.1.13,2013-05-31 09:32:00,
2013-05-31 05:38:00,58.1,55.8,30.13,North,360,0.0,0.0,92,0.00,,,0.00,Wunderground v.1.13,2013-05-31 09:38:00,
2013-05-31 05:44:00,57.9,55.6,30.13,North,360,0.0,0.0,92,0.00,,,0.00,Wunderground v.1.13,2013-05-31 09:44:00,
2013-05-31 05:50:00,57.8,55.5,30.14,North,360,0.0,0.0,92,0.00,,,0.00,Wunderground v.1.13,2013-05-31 09:50:00,
2013-05-31 05:56:00,57.7,55.4,30.14,North,360,0.0,0.0,92,0.00,,,0.00,Wunderground v.1.13,2013-05-31 09:56:00,
2013-05-31 06:01:00,57.7,55.4,30.15,North,360,0.0,0.0,92,0.00,,,0.00,Wunderground v.1.13,2013-05-31 10:01:00,
2013-05-31 06:07:00,57.7,55.4,30.15,North,360,0.0,0.0,92,0.00,,,0.00,Wunderground v.1.13,2013-05-31 10:07:00,
2013-05-31 06:13:00,57.6,55.3,30.15,North,360,0.0,0.0,92,0.00,,,0.00,Wunderground v.1.13,2013-05-31 10:13:00,
2013-05-31 06:19:00,57.5,55.2,30.15,North,360,0.0,0.0,92,0.00,,,0.00,Wunderground v.1.13,2013-05-31 10:19:00,
2013-05-31 06:24:00,57.4,55.1,30.15,North,360,0.0,0.0,92,0.00,,,0.00,Wunderground v.1.13,2013-05-31 10:24:00,
2013-05-31 06:30:00,57.3,55.3,30.16,North,360,0.0,0.0,93,0.00,,,0.00,Wunderground v.1.13,2013-05-31 10:30:00,
2013-05-31 06:36:00,57.3,55.3,30.16,North,360,0.0,0.0,93,0.00,,,0.00,Wunderground v.1.13,2013-05-31 10:36:00,
2013-05-31 06:41:00,57.4,55.4,30.16,North,360,0.0,0.0,93,0.00,,,0.00,Wunderground v.1.13,2013-05-31 10:41:00,
2013-05-31 06:47:00,57.4,55.4,30.16,North,360,0.0,0.0,93,0.00,,,0.00,Wunderground v.1.13,2013-05-31 10:47:00,
2013-05-31 06:52:00,57.4,55.4,30.17,North,360,0.0,0.0,93,0.00,,,0.00,Wunderground v.1.13,2013-05-31 10:52:00,
2013-05-31 06:58:00,57.7,56.0,30.17,North,360,0.0,0.0,94,0.00,,,0.00,Wunderground v.1.13,2013-05-31 10:58:00,
2013-05-31 07:04:00,58.0,56.3,30.17,North,360,0.0,0.0,94,0.00,,,0.00,Wunderground v.1.13,2013-05-31 11:04:00,
2013-05-31 07:10:00,58.2,56.5,30.17,North,360,0.0,0.0,94,0.00,,,0.00,Wunderground v.1.13,2013-05-31 11:10:00,
2013-05-31 07:15:00,58.5,57.1,30.17,North,360,0.0,0.0,95,0.00,,,0.00,Wunderground v.1.13,2013-05-31 11:15:00,
2013-05-31 07:21:00,59.0,57.6,30.17,North,360,0.0,0.0,95,0.00,,,0.00,Wunderground v.1.13,2013-05-31 11:21:00,
2013-05-31 07:26:00,59.5,58.4,30.17,North,360,0.0,0.0,96,0.00,,,0.00,Wunderground v.1.13,2013-05-31 11:26:00,
2013-05-31 07:32:00,60.1,59.0,30.17,North,360,0.0,0.0,96,0.00,,,0.00,Wunderground v.1.13,2013-05-31 11:32:00,
2013-05-31 07:37:00,60.8,59.7,30.17,North,360,0.0,0.0,96,0.00,,,0.00,Wunderground v.1.13,2013-05-31 11:37:00,
2013-05-31 07:42:00,61.4,60.2,30.17,North,360,0.0,0.0,96,0.00,,,0.00,Wunderground v.1.13,2013-05-31 11:42:00,
2013-05-31 07:48:00,62.2,61.0,30.17,North,360,0.0,0.0,96,0.00,,,0.00,Wunderground v.1.13,2013-05-31 11:48:00,
2013-05-31 07:54:00,63.0,61.8,30.17,North,360,0.0,0.0,96,0.00,,,0.00,Wunderground v.1.13,2013-05-31 11:54:00,
2013-05-31 07:59:00,63.7,62.2,30.17,North,360,0.0,0.0,95,0.00,,,0.00,Wunderground v.1.13,2013-05-31 11:59:00,
2013-05-31 08:05:00,64.8,63.3,30.17,North,360,0.0,0.0,95,0.00,,,0.00,Wunderground v.1.13,2013-05-31 12:05:00,
2013-05-31 08:11:00,65.8,64.0,30.18,North,360,0.0,0.0,94,0.00,,,0.00,Wunderground v.1.13,2013-05-31 12:11:00,
2013-05-31 08:17:00,66.7,64.6,30.18,North,360,0.0,0.0,93,0.00,,,0.00,Wunderground v.1.13,2013-05-31 12:17:00,
2013-05-31 08:22:00,67.2,64.5,30.18,North,360,0.0,0.0,91,0.00,,,0.00,Wunderground v.1.13,2013-05-31 12:22:00,
2013-05-31 08:28:00,67.8,64.4,30.18,North,360,0.0,0.0,89,0.00,,,0.00,Wunderground v.1.13,2013-05-31 12:28:00,
2013-05-31 08:34:00,68.9,65.2,30.18,North,360,0.0,0.0,88,0.00,,,0.00,Wunderground v.1.13,2013-05-31 12:34:00,
2013-05-31 08:39:00,70.1,65.4,30.18,North,360,0.0,0.0,85,0.00,,,0.00,Wunderground v.1.13,2013-05-31 12:39:00,
2013-05-31 08:45:00,71.3,65.2,30.18,North,360,0.0,0.0,81,0.00,,,0.00,Wunderground v.1.13,2013-05-31 12:45:00,
2013-05-31 08:50:00,72.0,65.1,30.18,North,360,0.0,0.0,79,0.00,,,0.00,Wunderground v.1.13,2013-05-31 12:50:00,
2013-05-31 08:56:00,73.2,64.4,30.18,North,360,0.0,0.0,74,0.00,,,0.00,Wunderground v.1.13,2013-05-31 12:56:00,
2013-05-31 09:02:00,74.0,64.4,30.18,North,360,0.0,0.0,72,0.00,,,0.00,Wunderground v.1.13,2013-05-31 13:02:00,
2013-05-31 09:08:00,74.6,64.2,30.18,North,360,0.0,0.0,70,0.00,,,0.00,Wunderground v.1.13,2013-05-31 13:08:00,
2013-05-31 09:14:00,75.4,64.5,30.18,North,360,0.0,0.0,69,0.00,,,0.00,Wunderground v.1.13,2013-05-31 13:14:00,
2013-05-31 09:19:00,76.5,65.1,30.18,North,360,0.0,0.0,68,0.00,,,0.00,Wunderground v.1.13,2013-05-31 13:19:00,
2013-05-31 09:25:00,77.3,65.1,30.18,North,360,0.0,0.0,66,0.00,,,0.00,Wunderground v.1.13,2013-05-31 13:25:00,
2013-05-31 09:30:00,77.8,65.5,30.18,North,360,0.0,0.0,66,0.00,,,0.00,Wunderground v.1.13,2013-05-31 13:30:00,
2013-05-31 09:36:00,78.7,65.9,30.18,North,360,0.0,0.0,65,0.00,,,0.00,Wunderground v.1.13,2013-05-31 13:36:00,
2013-05-31 09:42:00,79.3,66.5,30.18,North,360,0.0,1.0,65,0.00,,,0.00,Wunderground v.1.13,2013-05-31 13:42:00,
2013-05-31 09:48:00,79.6,65.9,30.18,North,360,0.0,0.0,63,0.00,,,0.00,Wunderground v.1.13,2013-05-31 13:48:00,
2013-05-31 09:53:00,80.4,65.7,30.18,North,360,0.0,3.0,61,0.00,,,0.00,Wunderground v.1.13,2013-05-31 13:53:00,
2013-05-31 09:59:00,80.7,66.0,30.18,North,360,1.0,3.0,61,0.00,,,0.00,Wunderground v.1.13,2013-05-31 13:59:00,
2013-05-31 10:05:00,80.8,66.1,30.18,North,360,2.0,3.0,61,0.00,,,0.00,Wunderground v.1.13,2013-05-31 14:05:00,
2013-05-31 10:11:00,80.4,65.7,30.18,NNW,337,4.0,6.0,61,0.00,,,0.00,Wunderground v.1.13,2013-05-31 14:11:00,
2013-05-31 10:17:00,79.4,65.2,30.18,NNW,327,4.0,5.0,62,0.00,,,0.00,Wunderground v.1.13,2013-05-31 14:17:00,
2013-05-31 10:23:00,78.7,65.9,30.18,NW,325,4.0,7.0,65,0.00,,,0.00,Wunderground v.1.13,2013-05-31 14:23:00,
2013-05-31 10:28:00,78.7,66.4,30.18,NW,315,5.0,5.0,66,0.00,,,0.00,Wunderground v.1.13,2013-05-31 14:28:00,
2013-05-31 10:33:00,78.9,66.6,30.17,NW,315,4.0,5.0,66,0.00,,,0.00,Wunderground v.1.13,2013-05-31 14:33:00,
2013-05-31 10:39:00,79.5,66.7,30.18,NW,315,2.0,3.0,65,0.00,,,0.00,Wunderground v.1.13,2013-05-31 14:39:00,
2013-05-31 10:44:00,80.8,67.0,30.17,NW,315,1.0,2.0,63,0.00,,,0.00,Wunderground v.1.13,2013-05-31 14:44:00,
2013-05-31 10:50:00,81.3,66.6,30.17,NW,315,2.0,2.0,61,0.00,,,0.00,Wunderground v.1.13,2013-05-31 14:50:00,
2013-05-31 10:56:00,81.6,66.8,30.17,NW,308,3.0,5.0,61,0.00,,,0.00,Wunderground v.1.13,2013-05-31 14:56:00,
2013-05-31 11:01:00,81.5,66.8,30.17,NW,304,4.0,4.0,61,0.00,,,0.00,Wunderground v.1.13,2013-05-31 15:01:00,
2013-05-31 11:07:00,81.5,66.3,30.18,NW,304,2.0,3.0,60,0.00,,,0.00,Wunderground v.1.13,2013-05-31 15:07:00,
2013-05-31 11:13:00,82.6,67.3,30.18,NW,304,1.0,2.0,60,0.00,,,0.00,Wunderground v.1.13,2013-05-31 15:13:00,
2013-05-31 11:18:00,83.0,67.2,30.18,WNW,299,3.0,7.0,59,0.00,,,0.00,Wunderground v.1.13,2013-05-31 15:18:00,
2013-05-31 11:24:00,83.3,66.5,30.18,WNW,300,4.0,4.0,57,0.00,,,0.00,Wunderground v.1.13,2013-05-31 15:24:00,
2013-05-31 11:30:00,83.5,66.7,30.18,WNW,284,3.0,3.0,57,0.00,,,0.00,Wunderground v.1.13,2013-05-31 15:30:00,
2013-05-31 11:35:00,83.3,66.5,30.18,West,281,3.0,3.0,57,0.00,,,0.00,Wunderground v.1.13,2013-05-31 15:35:00,
2013-05-31 11:40:00,83.9,66.5,30.18,West,281,2.0,2.0,56,0.00,,,0.00,Wunderground v.1.13,2013-05-31 15:40:00,
2013-05-31 11:46:00,84.1,67.2,30.18,West,274,1.0,2.0,57,0.00,,,0.00,Wunderground v.1.13,2013-05-31 15:46:00,
2013-05-31 11:51:00,83.8,66.4,30.18,SSW,211,2.0,3.0,56,0.00,,,0.00,Wunderground v.1.13,2013-05-31 15:51:00,
2013-05-31 11:57:00,84.1,66.7,30.18,WSW,244,2.0,7.0,56,0.00,,,0.00,Wunderground v.1.13,2013-05-31 15:57:00,
2013-05-31 12:02:00,84.5,66.6,30.17,SW,232,3.0,5.0,55,0.00,,,0.00,Wunderground v.1.13,2013-05-31 16:02:00,
2013-05-31 12:08:00,84.2,66.3,30.17,SW,229,2.0,3.0,55,0.00,,,0.00,Wunderground v.1.13,2013-05-31 16:08:00,
2013-05-31 12:13:00,84.8,66.8,30.17,SW,234,2.0,5.0,55,0.00,,,0.00,Wunderground v.1.13,2013-05-31 16:13:00,
2013-05-31 12:19:00,85.3,67.3,30.17,SW,234,3.0,4.0,55,0.00,,,0.00,Wunderground v.1.13,2013-05-31 16:19:00,
2013-05-31 12:24:00,85.3,66.8,30.16,SW,234,2.0,3.0,54,0.00,,,0.00,Wunderground v.1.13,2013-05-31 16:24:00,
2013-05-31 12:30:00,85.2,67.2,30.16,SW,234,1.0,4.0,55,0.00,,,0.00,Wunderground v.1.13,2013-05-31 16:30:00,
2013-05-31 12:35:00,85.1,67.6,30.16,SW,234,1.0,1.0,56,0.00,,,0.00,Wunderground v.1.13,2013-05-31 16:35:00,
2013-05-31 12:40:00,84.9,66.9,30.16,WSW,238,1.0,5.0,55,0.00,,,0.00,Wunderground v.1.13,2013-05-31 16:40:00,
2013-05-31 12:46:00,85.1,67.6,30.16,SSW,211,2.0,2.0,56,0.00,,,0.00,Wunderground v.1.13,2013-05-31 16:46:00,
2013-05-31 12:52:00,85.1,66.6,30.16,South,182,3.0,7.0,54,0.00,,,0.00,Wunderground v.1.13,2013-05-31 16:52:00,
2013-05-31 12:57:00,84.7,66.7,30.16,South,188,3.0,3.0,55,0.00,,,0.00,Wunderground v.1.13,2013-05-31 16:57:00,
2013-05-31 13:03:00,85.3,67.3,30.15,South,188,1.0,4.0,55,0.00,,,0.00,Wunderground v.1.13,2013-05-31 17:03:00,
2013-05-31 13:08:00,85.6,66.5,30.15,South,174,2.0,8.0,53,0.00,,,0.00,Wunderground v.1.13,2013-05-31 17:08:00,
2013-05-31 13:14:00,86.1,67.0,30.15,SSW,210,3.0,6.0,53,0.00,,,0.00,Wunderground v.1.13,2013-05-31 17:14:00,
2013-05-31 13:20:00,86.8,68.7,30.15,SSW,210,2.0,2.0,55,0.00,,,0.00,Wunderground v.1.13,2013-05-31 17:20:00,
2013-05-31 13:25:00,86.8,67.1,30.14,WSW,257,3.0,7.0,52,0.00,,,0.00,Wunderground v.1.13,2013-05-31 17:25:00,
2013-05-31 13:31:00,86.5,67.3,30.14,West,259,5.0,7.0,53,0.00,,,0.00,Wunderground v.1.13,2013-05-31 17:31:00,
2013-05-31 13:37:00,86.8,66.5,30.14,WSW,239,2.0,3.0,51,0.00,,,0.00,Wunderground v.1.13,2013-05-31 17:37:00,
2013-05-31 13:42:00,87.0,67.8,30.13,SSW,192,2.0,7.0,53,0.00,,,0.00,Wunderground v.1.13,2013-05-31 17:42:00,
2013-05-31 13:48:00,86.9,66.6,30.13,SW,236,4.0,9.0,51,0.00,,,0.00,Wunderground v.1.13,2013-05-31 17:48:00,
2013-05-31 13:53:00,87.1,66.8,30.13,WSW,247,3.0,9.0,51,0.00,,,0.00,Wunderground v.1.13,2013-05-31 17:53:00,
2013-05-31 13:59:00,87.0,66.1,30.12,WSW,240,3.0,8.0,50,0.00,,,0.00,Wunderground v.1.13,2013-05-31 17:59:00,
2013-05-31 14:04:00,86.9,65.4,30.12,West,261,4.0,6.0,49,0.00,,,0.00,Wunderground v.1.13,2013-05-31 18:04:00,
2013-05-31 14:10:00,86.9,65.4,30.11,WSW,244,4.0,5.0,49,0.00,,,0.00,Wunderground v.1.13,2013-05-31 18:10:00,
2013-05-31 14:15:00,87.4,67.1,30.11,WSW,248,4.0,4.0,51,0.00,,,0.00,Wunderground v.1.13,2013-05-31 18:15:00,
2013-05-31 14:21:00,87.7,65.6,30.11,South,191,5.0,5.0,48,0.00,,,0.00,Wunderground v.1.13,2013-05-31 18:21:00,
2013-05-31 14:26:00,87.8,65.1,30.11,SSW,202,5.0,9.0,47,0.00,,,0.00,Wunderground v.1.13,2013-05-31 18:26:00,
2013-05-31 14:32:00,87.7,65.0,30.11,SSE,163,4.0,4.0,47,0.00,,,0.00,Wunderground v.1.13,2013-05-31 18:32:00,
2013-05-31 14:38:00,87.9,65.8,30.10,SSW,205,2.0,3.0,48,0.00,,,0.00,Wunderground v.1.13,2013-05-31 18:38:00,
2013-05-31 14:43:00,88.0,65.2,30.10,WSW,256,3.0,6.0,47,0.00,,,0.00,Wunderground v.1.13,2013-05-31 18:43:00,
2013-05-31 14:49:00,88.7,66.5,30.10,WSW,250,2.0,3.0,48,0.00,,,0.00,Wunderground v.1.13,2013-05-31 18:49:00,
2013-05-31 14:55:00,88.4,65.6,30.10,WSW,252,4.0,9.0,47,0.00,,,0.00,Wunderground v.1.13,2013-05-31 18:55:00,
2013-05-31 15:00:00,88.0,65.2,30.10,South,190,6.0,6.0,47,0.00,,,0.00,Wunderground v.1.13,2013-05-31 19:00:00,
2013-05-31 15:05:00,87.7,65.0,30.09,South,188,4.0,4.0,47,0.00,,,0.00,Wunderground v.1.13,2013-05-31 19:05:00,
2013-05-31 15:11:00,87.6,65.5,30.09,South,189,3.0,3.0,48,0.00,,,0.00,Wunderground v.1.13,2013-05-31 19:11:00,
2013-05-31 15:16:00,88.1,65.3,30.09,South,182,2.0,4.0,47,0.00,,,0.00,Wunderground v.1.13,2013-05-31 19:16:00,
2013-05-31 15:22:00,88.2,67.2,30.09,SSW,207,3.0,5.0,50,0.00,,,0.00,Wunderground v.1.13,2013-05-31 19:22:00,
2013-05-31 15:27:00,88.8,66.6,30.09,SW,218,3.0,7.0,48,0.00,,,0.00,Wunderground v.1.13,2013-05-31 19:27:00,
2013-05-31 15:33:00,89.1,66.2,30.09,SW,218,2.0,5.0,47,0.00,,,0.00,Wunderground v.1.13,2013-05-31 19:33:00,
2013-05-31 15:38:00,89.6,66.7,30.08,SW,220,2.0,3.0,47,0.00,,,0.00,Wunderground v.1.13,2013-05-31 19:38:00,
2013-05-31 15:44:00,89.4,65.9,30.08,WSW,248,4.0,9.0,46,0.00,,,0.00,Wunderground v.1.13,2013-05-31 19:44:00,
2013-05-31 15:49:00,88.8,66.6,30.08,WSW,238,5.0,10.0,48,0.00,,,0.00,Wunderground v.1.13,2013-05-31 19:49:00,
2013-05-31 15:55:00,88.7,64.6,30.08,West,262,5.0,5.0,45,0.00,,,0.00,Wunderground v.1.13,2013-05-31 19:55:00,
2013-05-31 16:00:00,88.6,65.8,30.08,West,263,4.0,4.0,47,0.00,,,0.00,Wunderground v.1.13,2013-05-31 20:00:00,
2013-05-31 16:06:00,88.8,66.0,30.08,SSW,206,3.0,3.0,47,0.00,,,0.00,Wunderground v.1.13,2013-05-31 20:06:00,
2013-05-31 16:12:00,88.6,65.2,30.08,SSW,202,3.0,3.0,46,0.00,,,0.00,Wunderground v.1.13,2013-05-31 20:12:00,
2013-05-31 16:17:00,88.5,65.1,30.07,SSW,201,1.0,2.0,46,0.00,,,0.00,Wunderground v.1.13,2013-05-31 20:17:00,
2013-05-31 16:23:00,88.7,65.9,30.07,SSW,202,2.0,5.0,47,0.00,,,0.00,Wunderground v.1.13,2013-05-31 20:23:00,
2013-05-31 16:29:00,88.0,64.6,30.07,South,181,4.0,5.0,46,0.00,,,0.00,Wunderground v.1.13,2013-05-31 20:29:00,
2013-05-31 16:35:00,88.0,64.6,30.07,SW,216,3.0,3.0,46,0.00,,,0.00,Wunderground v.1.13,2013-05-31 20:35:00,
2013-05-31 16:40:00,88.6,66.4,30.07,SW,217,2.0,5.0,48,0.00,,,0.00,Wunderground v.1.13,2013-05-31 20:40:00,
2013-05-31 16:46:00,88.9,65.4,30.07,WSW,257,4.0,5.0,46,0.00,,,0.00,Wunderground v.1.13,2013-05-31 20:46:00,
2013-05-31 16:52:00,89.0,65.5,30.07,West,276,6.0,6.0,46,0.00,,,0.00,Wunderground v.1.13,2013-05-31 20:52:00,
2013-05-31 16:57:00,88.8,64.7,30.07,West,259,6.0,7.0,45,0.00,,,0.00,Wunderground v.1.13,2013-05-31 20:57:00,
2013-05-31 17:03:00,88.6,64.5,30.07,WSW,258,4.0,5.0,45,0.00,,,0.00,Wunderground v.1.13,2013-05-31 21:03:00,
2013-05-31 17:09:00,88.6,65.2,30.07,WSW,258,3.0,4.0,46,0.00,,,0.00,Wunderground v.1.13,2013-05-31 21:09:00,
2013-05-31 17:15:00,88.8,66.0,30.07,WSW,242,3.0,3.0,47,0.00,,,0.00,Wunderground v.1.13,2013-05-31 21:15:00,
2013-05-31 17:21:00,89.3,65.2,30.07,WSW,244,3.0,5.0,45,0.00,,,0.00,Wunderground v.1.13,2013-05-31 21:21:00,
2013-05-31 17:27:00,89.2,64.4,30.07,West,269,4.0,6.0,44,0.00,,,0.00,Wunderground v.1.13,2013-05-31 21:27:00,
2013-05-31 17:32:00,88.7,64.0,30.07,West,269,4.0,4.0,44,0.00,,,0.00,Wunderground v.1.13,2013-05-31 21:32:00,
2013-05-31 17:38:00,88.0,64.0,30.07,West,269,2.0,3.0,45,0.00,,,0.00,Wunderground v.1.13,2013-05-31 21:38:00,
2013-05-31 17:43:00,87.9,63.9,30.07,West,269,2.0,4.0,45,0.00,,,0.00,Wunderground v.1.13,2013-05-31 21:43:00,
2013-05-31 17:49:00,88.0,62.7,30.07,West,262,4.0,9.0,43,0.00,,,0.00,Wunderground v.1.13,2013-05-31 21:49:00,
2013-05-31 17:54:00,88.1,65.3,30.07,West,270,7.0,11.0,47,0.00,,,0.00,Wunderground v.1.13,2013-05-31 21:54:00,
2013-05-31 18:00:00,88.1,65.3,30.07,West,269,8.0,8.0,47,0.00,,,0.00,Wunderground v.1.13,2013-05-31 22:00:00,
2013-05-31 18:06:00,88.1,64.7,30.06,West,263,7.0,12.0,46,0.00,,,0.00,Wunderground v.1.13,2013-05-31 22:06:00,
2013-05-31 18:11:00,87.4,64.7,30.06,West,267,7.0,9.0,47,0.00,,,0.00,Wunderground v.1.13,2013-05-31 22:11:00,
2013-05-31 18:17:00,87.0,64.9,30.06,West,266,5.0,6.0,48,0.00,,,0.00,Wunderground v.1.13,2013-05-31 22:17:00,
2013-05-31 18:23:00,86.6,64.6,30.06,West,265,4.0,6.0,48,0.00,,,0.00,Wunderground v.1.13,2013-05-31 22:23:00,
2013-05-31 18:28:00,86.6,64.6,30.06,West,277,5.0,12.0,48,0.00,,,0.00,Wunderground v.1.13,2013-05-31 22:28:00,
2013-05-31 18:33:00,86.7,65.3,30.06,WSW,252,6.0,8.0,49,0.00,,,0.00,Wunderground v.1.13,2013-05-31 22:33:00,
2013-05-31 18:39:00,86.4,65.0,30.06,WSW,252,5.0,8.0,49,0.00,,,0.00,Wunderground v.1.13,2013-05-31 22:39:00,
2013-05-31 18:44:00,86.2,64.8,30.06,West,267,5.0,12.0,49,0.00,,,0.00,Wunderground v.1.13,2013-05-31 22:44:00,
2013-05-31 18:50:00,86.0,64.6,30.06,WSW,253,6.0,6.0,49,0.00,,,0.00,Wunderground v.1.13,2013-05-31 22:50:00,
2013-05-31 18:55:00,85.7,64.3,30.06,West,273,7.0,7.0,49,0.00,,,0.00,Wunderground v.1.13,2013-05-31 22:55:00,
2013-05-31 19:01:00,85.4,64.6,30.06,WSW,241,5.0,6.0,50,0.00,,,0.00,Wunderground v.1.13,2013-05-31 23:01:00,
2013-05-31 19:07:00,85.4,64.6,30.05,WSW,242,4.0,9.0,50,0.00,,,0.00,Wunderground v.1.13,2013-05-31 23:07:00,
2013-05-31 19:13:00,85.4,64.6,30.06,WSW,246,3.0,5.0,50,0.00,,,0.00,Wunderground v.1.13,2013-05-31 23:13:00,
2013-05-31 19:18:00,85.4,64.6,30.06,WSW,246,4.0,5.0,50,0.00,,,0.00,Wunderground v.1.13,2013-05-31 23:18:00,
2013-05-31 19:24:00,85.1,64.9,30.06,WSW,246,2.0,3.0,51,0.00,,,0.00,Wunderground v.1.13,2013-05-31 23:24:00,
2013-05-31 19:29:00,84.8,65.2,30.06,WSW,246,1.0,2.0,52,0.00,,,0.00,Wunderground v.1.13,2013-05-31 23:29:00,
2013-05-31 19:35:00,84.5,64.9,30.06,WSW,246,1.0,1.0,52,0.00,,,0.00,Wunderground v.1.13,2013-05-31 23:35:00,
2013-05-31 19:41:00,84.0,66.6,30.06,WSW,246,1.0,1.0,56,0.00,,,0.00,Wunderground v.1.13,2013-05-31 23:41:00,
2013-05-31 19:47:00,83.5,67.2,30.06,WSW,246,0.0,0.0,58,0.00,,,0.00,Wunderground v.1.13,2013-05-31 23:47:00,
2013-05-31 19:52:00,83.0,67.7,30.06,WSW,246,0.0,1.0,60,0.00,,,0.00,Wunderground v.1.13,2013-05-31 23:52:00,
2013-05-31 19:58:00,82.2,67.4,30.06,WSW,246,0.0,0.0,61,0.00,,,0.00,Wunderground v.1.13,2013-05-31 23:58:00,
2013-05-31 20:03:00,81.7,67.4,30.06,WSW,246,0.0,0.0,62,0.00,,,0.00,Wunderground v.1.13,2013-06-01 00:03:00,
2013-05-31 20:09:00,81.3,66.6,30.06,WSW,246,0.0,1.0,61,0.00,,,0.00,Wunderground v.1.13,2013-06-01 00:09:00,
2013-05-31 20:14:00,80.9,66.7,30.06,WSW,246,0.0,1.0,62,0.00,,,0.00,Wunderground v.1.13,2013-06-01 00:14:00,
2013-05-31 20:20:00,80.7,66.9,30.06,WSW,246,0.0,1.0,63,0.00,,,0.00,Wunderground v.1.13,2013-06-01 00:20:00,
2013-05-31 20:25:00,80.3,67.0,30.06,WSW,246,0.0,0.0,64,0.00,,,0.00,Wunderground v.1.13,2013-06-01 00:25:00,
2013-05-31 20:31:00,79.9,67.1,30.06,WSW,246,0.0,0.0,65,0.00,,,0.00,Wunderground v.1.13,2013-06-01 00:31:00,
2013-05-31 20:37:00,79.4,66.6,30.06,WSW,246,0.0,0.0,65,0.00,,,0.00,Wunderground v.1.13,2013-06-01 00:37:00,
2013-05-31 20:43:00,78.9,67.0,30.06,WSW,246,0.0,0.0,67,0.00,,,0.00,Wunderground v.1.13,2013-06-01 00:43:00,
2013-05-31 20:48:00,78.5,67.1,30.06,WSW,246,0.0,0.0,68,0.00,,,0.00,Wunderground v.1.13,2013-06-01 00:48:00,
2013-05-31 20:54:00,77.7,66.3,30.06,WSW,246,0.0,0.0,68,0.00,,,0.00,Wunderground v.1.13,2013-06-01 00:54:00,
2013-05-31 21:00:00,77.1,66.1,30.06,WSW,246,0.0,0.0,69,0.00,,,0.00,Wunderground v.1.13,2013-06-01 01:00:00,
2013-05-31 21:05:00,76.6,66.1,30.06,WSW,246,0.0,0.0,70,0.00,,,0.00,Wunderground v.1.13,2013-06-01 01:05:00,
2013-05-31 21:11:00,75.9,65.4,30.06,WSW,246,0.0,0.0,70,0.00,,,0.00,Wunderground v.1.13,2013-06-01 01:11:00,
2013-05-31 21:17:00,75.4,65.3,30.06,WSW,246,0.0,0.0,71,0.00,,,0.00,Wunderground v.1.13,2013-06-01 01:17:00,
2013-05-31 21:22:00,74.9,64.9,30.06,WSW,246,0.0,0.0,71,0.00,,,0.00,Wunderground v.1.13,2013-06-01 01:22:00,
2013-05-31 21:28:00,74.5,64.9,30.06,WSW,246,0.0,0.0,72,0.00,,,0.00,Wunderground v.1.13,2013-06-01 01:28:00,
2013-05-31 21:34:00,74.1,64.9,30.06,WSW,246,0.0,0.0,73,0.00,,,0.00,Wunderground v.1.13,2013-06-01 01:34:00,
2013-05-31 21:40:00,73.6,64.8,30.07,WSW,246,0.0,0.0,74,0.00,,,0.00,Wunderground v.1.13,2013-06-01 01:40:00,
2013-05-31 21:45:00,73.3,64.5,30.07,WSW,246,0.0,0.0,74,0.00,,,0.00,Wunderground v.1.13,2013-06-01 01:45:00,
2013-05-31 21:51:00,72.9,64.5,30.07,WSW,246,0.0,0.0,75,0.00,,,0.00,Wunderground v.1.13,2013-06-01 01:51:00,
2013-05-31 21:56:00,72.7,64.7,30.07,WSW,246,0.0,0.0,76,0.00,,,0.00,Wunderground v.1.13,2013-06-01 01:56:00,
2013-05-31 22:02:00,72.4,64.4,30.07,WSW,246,0.0,0.0,76,0.00,,,0.00,Wunderground v.1.13,2013-06-01 02:02:00,
2013-05-31 22:08:00,72.2,64.6,30.07,WSW,246,0.0,0.0,77,0.00,,,0.00,Wunderground v.1.13,2013-06-01 02:08:00,
2013-05-31 22:14:00,71.9,64.7,30.08,WSW,246,0.0,0.0,78,0.00,,,0.00,Wunderground v.1.13,2013-06-01 02:14:00,
2013-05-31 22:19:00,71.7,64.5,30.07,WSW,246,0.0,0.0,78,0.00,,,0.00,Wunderground v.1.13,2013-06-01 02:19:00,
2013-05-31 22:25:00,71.4,64.2,30.08,WSW,246,0.0,0.0,78,0.00,,,0.00,Wunderground v.1.13,2013-06-01 02:25:00,
2013-05-31 22:31:00,71.0,64.2,30.07,WSW,246,0.0,0.0,79,0.00,,,0.00,Wunderground v.1.13,2013-06-01 02:31:00,
2013-05-31 22:37:00,70.6,63.8,30.07,WSW,246,0.0,0.0,79,0.00,,,0.00,Wunderground v.1.13,2013-06-01 02:37:00,
2013-05-31 22:42:00,70.2,63.7,30.07,WSW,246,0.0,0.0,80,0.00,,,0.00,Wunderground v.1.13,2013-06-01 02:42:00,
2013-05-31 22:48:00,69.8,63.7,30.07,WSW,246,0.0,0.0,81,0.00,,,0.00,Wunderground v.1.13,2013-06-01 02:48:00,
2013-05-31 22:53:00,69.6,63.5,30.08,WSW,246,0.0,0.0,81,0.00,,,0.00,Wunderground v.1.13,2013-06-01 02:53:00,
2013-05-31 22:59:00,69.4,63.7,30.08,WSW,246,0.0,0.0,82,0.00,,,0.00,Wunderground v.1.13,2013-06-01 02:59:00,
2013-05-31 23:04:00,69.2,63.5,30.08,WSW,246,0.0,0.0,82,0.00,,,0.00,Wunderground v.1.13,2013-06-01 03:04:00,
2013-05-31 23:09:00,69.0,63.6,30.08,WSW,246,0.0,0.0,83,0.00,,,0.00,Wunderground v.1.13,2013-06-01 03:09:00,
2013-05-31 23:15:00,68.8,63.4,30.08,WSW,246,0.0,0.0,83,0.00,,,0.00,Wunderground v.1.13,2013-06-01 03:15:00,
2013-05-31 23:21:00,68.5,63.5,30.08,WSW,246,0.0,0.0,84,0.00,,,0.00,Wunderground v.1.13,2013-06-01 03:21:00,
2013-05-31 23:26:00,68.4,63.4,30.07,WSW,246,0.0,0.0,84,0.00,,,0.00,Wunderground v.1.13,2013-06-01 03:26:00,
2013-05-31 23:32:00,68.3,63.3,30.08,WSW,246,0.0,0.0,84,0.00,,,0.00,Wunderground v.1.13,2013-06-01 03:32:00,
2013-05-31 23:38:00,68.1,63.1,30.07,WSW,246,0.0,0.0,84,0.00,,,0.00,Wunderground v.1.13,2013-06-01 03:38:00,
2013-05-31 23:43:00,68.0,63.0,30.07,WSW,246,0.0,0.0,84,0.00,,,0.00,Wunderground v.1.13,2013-06-01 03:43:00,
2013-05-31 23:49:00,67.9,63.2,30.07,WSW,246,0.0,0.0,85,0.00,,,0.00,Wunderground v.1.13,2013-06-01 03:49:00,
2013-05-31 23:55:00,67.6,62.9,30.07,WSW,246,0.0,0.0,85,0.00,,,0.00,Wunderground v.1.13,2013-06-01 03:55:00,